Погода в Расеиниаи

Поиск расширенной информации на нашем сайте:

Полезная информация:

Новости сайта



02.01.2020
Опубликован Долгосрочный прогноз погоды по городам России и ближнего зарубежья на январь 2020 года.
Карты: Прогноз на январь и февраль 2020 года, Сравнение прогнозируемой аномалии приземной температуры воздуха на январь 2020 года по разным моделям.




Погода в Расеиниаи - сегодня

Время (UTC), дата Ветер
(°,м/с) 
Видим.   Явления Облачность Т
(°С)
Тd
(°С)
f(%) Тe
(°С)
Pmin
(гПа)
dP
(гПа)
Po
(мм)
O2
(г/м3)
Тmin Tmax R s Состояние
почвы
00 16.01.22 230 (ЮЗ) 2-3{05}  19000 м    10/0 
-2.4 -3.5 92 -3  1020.2  -0.8  755  307         
03 16.01.22 200 (Ю) 2-4{04}  16000 м    10/10 100 м 
-2.3 -2.9 96 -3  1018.9  -1.2  754  307         
06 16.01.22 240 (ЮЗ) 5-9{09}  6000 м  в посл. час снег  10/10 100 м 
+0 -0.4 97 -3  1016.9  -1.9  752  303  -2.9    0.0   
09 16.01.22 230 (ЮЗ) 5-9{11}  5000 м  слаб. снег  10/10 100 м 
-0.5 -1.8 91 -4  1016  -0.9  752  304         
12 16.01.22 220 (ЮЗ) 6-10{11}  5000 м  дымка  10/10 100 м 
-1.3 -2 95 -5  1013.3  -2.7  750  304         
15 16.01.22 220 (ЮЗ) 6-10{11}  4100 м  слаб. переохл. морось (гололёд)  10/10 200 м 
-1.4 -2 96 -5  1010.2  -3  747  303         
18 16.01.22 240 (ЮЗ) 7-13{13}  6000 м  дымка  10/10 100 м 
-1.4 -2.2 94 -6  1006.3  -3.9  744  302    +0     
21 16.01.22 230 (ЮЗ) 7-11{13}  3900 м  слаб. переохл. морось (гололёд)  10/10 100 м 
-0.3 -0.9 96 -4  1002  -4.2  741  299         
00 17.01.22 240 (ЮЗ) 7-13{14}  7000 м  слаб. дождь  10/10 100 м 
+1.2 +0.7 96 -2  996.9  -5  737  296      0.6   
03 17.01.22 250 (З) 9-16{19}  19000 м  слаб. ливневой дождь  10/10 300 м 
+2.5 +0.6 87 -1  991.1  -5.6  733  293           
06 17.01.22 280 (З) 7-13{16}  19000 м  слаб. дождь  10/10 300 м 
+2.3 +0.6 88 -1  985.1  -6  729  291  -1.4       
09 17.01.22 310 (СЗ) 8-16{22}  20000 м    6/6 1000 м 
+0.2 -3.3 77 -4  990.7  5.5  733  295         
12 17.01.22 300 (СЗ) 8-14{19}  18000 м  слаб. ливневой снег  9/9 600 м 
+0 -3 80 -4  994  3.2  735  297      0.9   
15 17.01.22 330 (СЗ) 11-18{21}  20000 м    6/6 1000 м 
+0.1 -5.7 65 -5  1000.9  6.9  740  299         
18 17.01.22 340 (С) 11-18{20}  20000 м    ясно 
-0.8 -8 58 -6  1009.1  746  302    +2.2  0.9   
21 17.01.22 310 (СЗ) 6-9{18}  20000 м    ясно 
-1.6 -6.8 68 -5  1013.5  4.3  750  305         
00 18.01.22 310 (СЗ) 6-11{13}  20000 м    9/0 
-0.2 -4.6 72 -4  1015.6  2.1  751  303         
03 18.01.22 330 (СЗ) 6-10{15}  20000 м    8/8 600 м 
-0.3 -4 76 -4  1018  2.4  753  304         
06 18.01.22 310 (СЗ) 4-6{11}  20000 м    ясно 
-1.8 -4.5 82 -5  1021.9  3.8  756  307  -1.8       
09 18.01.22 320 (СЗ) 4-6{08}  20000 м    ясно 
-0.7 -4.6 75 -3  1025.1  3.2  758  307         
12 18.01.22 300 (СЗ) 3-5{08}  20000 м    ясно 
+0.5 -4.2 71 -1  1026.3  1.2  759  306         
15 18.01.22 260 (З) 2-3{06}  20000 м    1/1 1000 м 
-0.8 -3.6 81 -2  1027.5  1.1  760  308         
18 18.01.22 260 (З) 2-4{05}  20000 м    4/0 
-1.7 -3 91 -3  1026.8  -0.7  760  308    +0.8     
21 18.01.22 230 (ЮЗ) 3-4{05}  14000 м    9/0 
-1.7 -2.4 95 -4  1025.7  -1.1  759  308         
00 19.01.22 250 (З) 6-10{10}  20000 м    9/9 300 м 
-0.3 -1.2 94 -4  1023  -2.6  757  305         
Время (UTC), дата Ветер
(°,м/с) 
Видим.   Явления Облачность Т
(°С)
Тd
(°С)
f(%) Тe
(°С)
Pmin
(гПа)
dP
(гПа)
Po
(мм)
O2
(г/м3)
Тmin Tmax R s Состояние
почвы

Для получения пояснительной информации подведите курсор к названию столбца.

ПОГОДА в Расеиниаи - архив

Всё, что Вы хотите узнать о погоде в Расеиниаи - удобно и подробно!

Выберите нужную дату (начиная с 1 января 2019* года) и нажмите кнопку "Найти".
Будут отображены архивные сводки погоды по пункту Расеиниаи, начиная с указанной даты.


Отображать данные в формате CSV (для использования в таблицах Excel)


Внимание! Наш архив погоды предназначен исключительно для личного некоммерческого использования в познавательных целях. Если Вам необходимы официальные справки о состоянии погоды (для производственных, юридических, коммерческих и т.п. целей), обращайтесь в органы Росгидромета.

*Примечание: данная дата относится к архиву по метеостанциям СССР (Россия, СНГ, Балтия).
Архив по метеостанциям Зарубежной Европы и Азии (кроме Китая) хранится 10 дней, по другим регионам земного шара (Китай, Африка, Америка, Австралия, Океания) - 1 день.

Расеиниаи - район местоположения метеостанции


Название, широта, долгота, высота метеостанции:
Расеиниаи 55.4°ш. 23.1°д. 111 м над ур. моря [Литва]

Дополнительная информация

В oтличие oт бoльшинства пoгoдных сайтoв мы публикуем пoдрoбную метеoинфoрмацию в детальнoм прoфессиoнальнoм фoрмате.

Характеристики температуры и влажнoсти вoздуха измеряются на высoте 2 м в тени вдали oт зданий и деревьев.
Скoрoсть ветра измеряется на высoте 10 м (на урoвне рoста челoвека скoрoсть ветра ниже в 1.5-2 раза). Если метеoстанция нахoдится в гoрoде или в лесу, тo скoрoсть ветра занижена на 2-4 м/с пo сравнению с oткрытым местoм. Скoрoсть ветра над акватoриями крупных рек и oзёр, а также на вершинах хoлмoв на 2-5 м/с выше, чем в oбычных услoвиях.
Атмoсфернoе давление в разных тoчках местнoсти мoжет значительнo oтличаться oт давления на метеoстанции, в зависимoсти oт услoвий рельефа (при пoдъёме на 10 м давление пoнижается примернo на 1 мм рт.ст.).